Flag for Germany Weather past 2 weeks in Erfurt, Thuringia, Germany

Now
61 °F

Fog.


Feels Like: 61 °F
Forecast: 59 / 81 °F
Wind: 2 mph from North

Location: Erfurt-Bindersleben

Current Time: Jul 26, 2014 at 9:31:23 AM

Latest Report: Jul 26, 2014 at 8:50 AM


Visibility: 0 mi

Pressure: 29.95 "Hg

Humidity: 100%

Dew point: 61 °F

Location of ErfurtLocation

Historic Weather in Erfurt — Graph

°F

Erfurt temperature yesterday

Maximum temperature yesterday: 70 °F (at 3:50 PM)
Minimum temperature yesterday: 59 °F (at 12:20 AM)
Average temperature yesterday: 63 °F

Past Weeks' High & Low Weather Summary

 TemperatureHumidityPressure
High88 °F (Jul 19, 3:20 PM)100% (Jul 13, 5:20 AM)30.21 "Hg (Jul 13, 5:20 AM)
Low52 °F (Jul 13, 2:50 AM)25% (Jul 19, 6:20 PM)29.77 "Hg (Jul 13, 1:20 PM)
Average68 °F69%29.99 "Hg
* Reported Jul 11 8:20 AM — Jul 26 8:20 AM, Erfurt, Weather by CustomWeather, © 2014

Note: Actual official high and low records may vary slightly from our data, if they occured in-between our weather recording intervals... More about our weather records

Advertising

Erfurt weather history for previous 24 hours

 ConditionsComfort  
Time TempWeatherWind HumidityBarometerVisibility
8:20 AM
Jul 26
61 °FFog.2 mph100%29.95 "Hg0 mi
7:50 AM59 °FFog.3 mph100%29.95 "Hg0 mi
7:20 AM59 °FFog.3 mph100%29.95 "Hg0 mi
6:50 AM59 °FFog.6 mph100%29.95 "Hg0 mi
6:20 AM59 °FFog.5 mph100%29.95 "Hg0 mi
5:50 AM59 °FFog.2 mph100%29.95 "Hg0 mi
5:20 AM59 °FFog.3 mph94%29.92 "Hg0 mi
4:50 AM59 °FFog.2 mph94%29.92 "HgN/A
4:20 AM59 °FClear.2 mph94%29.92 "Hg10 mi
3:50 AM59 °FClear.2 mph94%29.92 "Hg10 mi
3:20 AM59 °FClear.2 mph94%29.92 "Hg10 mi
2:50 AM59 °FClear.2 mph94%29.95 "Hg10 mi
2:20 AM59 °FClear.1 mph94%29.95 "Hg10 mi
1:50 AM61 °FClear.2 mph88%29.95 "Hg10 mi
1:20 AM61 °FClear.No wind88%29.95 "Hg10 mi
12:50 AM61 °FClear.2 mph88%29.95 "Hg10 mi
12:20 AM61 °FClear.3 mph88%29.95 "Hg10 mi
11:50 PM
Jul 25
64 °FClear.3 mph83%29.95 "Hg10 mi
11:20 PM63 °FClear.3 mph88%29.95 "Hg10 mi
10:50 PM63 °FClear.5 mph88%29.95 "Hg10 mi
10:20 PM64 °FClear.5 mph83%29.95 "Hg10 mi
9:50 PM64 °FSunny.3 mph83%29.92 "Hg10 mi
9:20 PM66 °FSunny.2 mph78%29.92 "Hg10 mi
8:50 PM66 °FScattered clouds.3 mph78%29.92 "HgN/A
8:20 PM68 °FScattered clouds.5 mph73%29.92 "HgN/A
7:50 PM68 °FScattered clouds.5 mph73%29.92 "HgN/A
7:20 PM70 °FScattered clouds.6 mph69%29.92 "HgN/A
6:50 PM70 °FPartly sunny.7 mph69%29.92 "HgN/A
6:20 PM70 °FBroken clouds.5 mph73%29.92 "HgN/A
5:50 PM70 °FPartly sunny.7 mph69%29.92 "HgN/A
5:20 PM70 °FScattered clouds.5 mph69%29.92 "HgN/A
4:50 PM70 °FScattered clouds.5 mph69%29.92 "HgN/A
4:20 PM70 °FScattered clouds.9 mph69%29.95 "HgN/A
3:50 PM70 °FScattered clouds.7 mph69%29.95 "HgN/A
3:20 PM68 °FScattered clouds.6 mph73%29.95 "HgN/A
2:20 PM68 °FScattered clouds.7 mph78%29.95 "HgN/A
1:50 PM66 °FPartly sunny.5 mph78%29.95 "HgN/A
1:20 PM64 °FPartly sunny.1 mph83%29.98 "HgN/A
12:50 PM64 °FBroken clouds.2 mph83%29.98 "HgN/A
12:20 PM63 °FBroken clouds.3 mph94%29.98 "HgN/A
11:50 AM63 °FBroken clouds.3 mph88%29.98 "HgN/A
11:20 AM61 °FBroken clouds.3 mph94%29.98 "HgN/A
10:50 AM61 °FBroken clouds.3 mph94%29.98 "HgN/A
10:20 AM61 °FPartly sunny.5 mph94%29.98 "Hg5 mi
9:50 AM61 °FPartly sunny.5 mph94%29.98 "Hg4 mi
9:20 AM59 °FFog.3 mph100%29.98 "Hg3 mi
Weather by CustomWeather, © 2014

See weather overviewHow to use our weather pages